Powrót do katalogu

COSMOS 2251 DEB

AktywnyLEO
NORAD 35455·DEBRIS·🇷🇺 Russia

Wystrzelony Jun 16, 1993 z Plesetsk Cosmodrome

Loading…

Następne Przeloty (najbliższe 24 godziny)

TLE

ŚwieżeSource: Space-Track

Epoka: Sep 14, 2026, 09:38 UTC

1 35455U 93036AKZ 26257.40185589  .00001657  00000-0  39871-3 0  9995
2 35455  74.0258 136.3845 0099850 173.3090 186.9433 14.51139647905407

Śledź COSMOS 2251 DEB w czasie rzeczywistym z AllMySat

Download on the App Store